Duchifat 3
1 44854U 19089C   25095.87706512  .00066761  00000-0  16201-2 0  9997
2 44854  36.9469  44.7487 0003319 320.6194  39.4318 15.39949606292945
TO-108
1 44881U 19093C   25095.82914729  .00002828  00000-0  33383-3 0  9993
2 44881  97.7947 172.8322 0015296  85.4870 274.8092 14.85403903286465
FloripaSat 1
1 44885U 19093G   25095.82392047  .00013538  00000-0  11648-2 0  9999
2 44885  97.8145 183.3393 0011028  66.3248 293.9130 14.97458628287059
RS-44
1 44909U 19096E   25094.72684951  .00000033  00000-0  77786-4 0  9998
2 44909  82.5166 271.0379 0218472  89.5954 273.0176 12.79739851246267
UPMSat 2
1 46276U 20061E   25095.75956123  .00080831  00000-0  10098-2 0  9993
2 46276  97.2509 168.3722 0001787 149.9544 210.1816 15.59579103255339
SALSAT
1 46495U 20068K   25095.86608438  .00016969  00000-0  75619-3 0  9990
2 46495  97.8564  70.9812 0012970  36.3335 323.8777 15.21432529248687
CubeSX-Sirius-HSE
1 47951U 21022V   25095.91792654  .00204944  00000-0  19433-2 0  9992
2 47951  97.4237   5.3861 0009699 141.4533 218.7421 15.66219933223633
CubeSX-HSE
1 47952U 21022W   25095.88001869  .00202049  00000-0  18746-2 0  9990
2 47952  97.4242   5.5704 0009805 137.4395 222.7627 15.66771556223646
GRBAlpha
1 47959U 21022AD  25095.84955731  .00204068  00000-0  19228-2 0  9998
2 47959  97.4229   5.6711 0009557 140.8613 219.3340 15.66382493222463
Orbicraft-Zorkiy
1 47960U 21022AE  25095.86139024  .01273273  88157-3  23773-2 0  9998
2 47960  97.4136  10.1144 0009653 144.1857 216.0071 16.01118880223415
TUBIN
1 48900U 21059X   25095.83149141  .00066328  00000-0  10302-2 0  9993
2 48900  97.6717 260.1278 0003817 132.1100 228.0478 15.53734713209969
LEDSAT
1 49069U 21073D   25095.75210953  .00087176  00000-0  14610-2 0  9997
2 49069  97.3937 175.0079 0010385 308.2305  51.8012 15.51478712201354
CUTE
1 49263U 21088D   25095.74739986  .00025077  00000-0  54831-3 0  9992
2 49263  97.4550 170.2412 0010149 119.2924 240.9339 15.44098770194410
TeikyoSat 4
1 49396U 21102B   25094.70410654  .00004397  00000-0  29522-3 0  9990
2 49396  97.4190 135.4970 0012597   8.3662 351.7773 15.07244843186625
Z-Sat
1 49399U 21102E   25095.85199497  .00009717  00000-0  54175-3 0  9992
2 49399  97.3890 139.3152 0017237 333.2634  26.7708 15.13657498187184
KOSEN 1
1 49402U 21102H   25095.68527538  .00015020  00000-0  71623-3 0  9990
2 49402  97.3791 142.0975 0014703 308.8167  51.1754 15.19091742187438
HO-113
1 50466U 21131B   25095.89679715  .00001417  00000-0  45742-3 0  9990
2 50466  98.5084 185.5793 0003487 345.8388  14.2703 14.40696392172131
IRIS-A
1 51044U 22002BN  25095.44965574  .00213962  00000-0  16335-2 0  9998
2 51044  97.3311 172.3897 0000592 141.6758 218.4547 15.71552135179570
Foresail-1
1 52766U 22057AL  25095.64339684  .00169711  00000-0  14224-2 0  9996
2 52766  97.6030 240.8670 0004729 192.3190 167.7956 15.69417888159639
SNUGLITE 2
1 52899U 22065F   25095.11101486  .00003513  00000-0  69476-3 0  9998
2 52899  98.1575 237.7682 0006683 325.0660  35.0103 14.62961713146913
IO-117
1 53106U 22080B   25051.21822557 -.00000003  00000-0  00000+0 0  9995
2 53106  70.1434 106.3440 0008542  48.0089 312.1297  6.42557744 61200
UmKA 1 (RS40S)
1 57172U 23091G   25095.87594750  .00012805  00000-0  70023-3 0  9994
2 57172  97.5660 151.6130 0014755 191.6693 168.4198 15.14318486 97689
CubeBel-2 (EU11S)
1 57175U 23091K   25095.86403328  .00017705  00000-0  88028-3 0  9994
2 57175  97.5656 152.3849 0012641 200.1384 159.9353 15.17630533 97734
VERONIKA
1 58261U 23174F   25095.76286773  .00132350  00000-0  19984-2 0  9993
2 58261  97.4175 178.8500 0006992 262.2089  97.8371 15.54249044 78560
ENSO
1 58470U 23185J   25095.84824235  .00073810  00000-0  13986-2 0  9998
2 58470  97.3788 169.2373 0006462 305.4587  54.6059 15.48069691 74996
EIRSAT-1
1 58472U 23185L   25095.83682309  .00108764  00000-0  16414-2 0  9999
2 58472  97.3765 170.2749 0005613 299.0057  61.0634 15.54358442 75061
SONATE-2
1 59112U 24043Q   25095.35081594  .00037545  00000-0  11776-2 0  9995
2 59112  97.5030 225.3845 0010791 348.6927  11.4071 15.32897975 60332
MO-122
1 60209U 24125G   25095.37787291  .00036992  00000-0  11447-2 0  9994
2 60209  97.2886 307.8153 0020075  15.7628 344.4235 15.33187008 41959
GRBBeta
1 60237U 24128C   25095.57370922  .00009789  00000-0  74412-3 0  9995
2 60237  61.9924 306.0953 0045730  43.5071 316.9613 15.01856144 40431
Curium One
1 60242U 24128H   25095.57420659  .00016826  00000-0  12028-2 0  9998
2 60242  61.9825 305.2522 0045484  39.1098 321.3266 15.03796524 40459
ROBUSTA-3A
1 60243U 24128J   25094.95953399  .00015163  00000-0  10991-2 0  9992
2 60243  61.9894 308.0195 0043866  36.8414 323.5677 15.03394005 40358
CatSat
1 60246U 24125J   25095.14247324  .00020326  00000-0  70933-3 0  9998
2 60246  97.2672 307.4907 0042887 328.9507  30.9199 15.28738036 39989
HYPERVIEW-1G (RS66S)
1 61772U 24199AP  25095.83740100  .00038858  00000-0  12444-2 0  9991
2 61772  97.3644 324.9330 0016120  68.5916 291.7044 15.32152565 67035
AO-123
1 61781U 24199AY  25095.87270739  .00014735  00000-0  55269-3 0  9992
2 61781  97.3652 324.4474 0017878  69.9374 290.3788 15.27180290 67009
ZIMSAT 2
1 61783U 24199BA  25095.86902353  .00054880  00000-0  15940-2 0  9993
2 61783  97.3632 325.1854 0016718  67.4542 292.8469 15.35158765 70201
HADES-R (SO-124)
1 62690U 25009CK  25095.19466619  .00074586  00000-0  31066-2 0  9990
2 62690  97.4119 176.4996 0001955 282.5880  77.5139 15.23424144 12174
HYDRA-T
1 62692U 25009CM  25095.45155627  .00069510  00000-0  28813-2 0  9992
2 62692  97.4122 176.7667 0002021 275.8845  84.2161 15.23612482 12218
JINJUSat 1B
1 63210U 25052A   25095.41332652  .00024701  00000-0  11926-2 0  9998
2 63210  97.4490 350.4189 0004659 161.5671 198.5733 15.18641562  3354
NUSHSAT 1
1 63211U 25052B   25095.41392219  .00027363  00000-0  13199-2 0  9995
2 63211  97.4481 350.4160 0004472 165.7726 194.3635 15.18653185  3353
TEVEL2-4
1 63213U 25052D   25095.48239905  .00025638  00000-0  12446-2 0  9993
2 63213  97.4398 350.4571 0003010 173.8546 186.2725 15.18449172  3365
TEVEL2-5
1 63214U 25052E   25095.81193179  .00025032  00000-0  12149-2 0  9991
2 63214  97.4398 350.7812 0003032 173.8476 186.2796 15.18462571  3415
TEVEL2-6
1 63215U 25052F   25095.21928486  .00028362  00000-0  13781-2 0  9995
2 63215  97.4401 350.1974 0003019 175.8641 184.2619 15.18394930  3320
TEVEL2-1
1 63217U 25052H   25095.48539726  .00025120  00000-0  12275-2 0  9997
2 63217  97.4375 350.4474 0002571 192.6361 167.4809 15.18225136  3367
TEVEL2-2
1 63218U 25052J   25095.22187941  .00028539  00000-0  13942-2 0  9997
2 63218  97.4377 350.1877 0002601 193.7516 166.3648 15.18206895  3328
TEVEL2-3
1 63219U 25052K   25095.41961273  .00026350  00000-0  12876-2 0  9991
2 63219  97.4376 350.3826 0002576 193.6845 166.4320 15.18214991  3356
TEVEL2-8
1 63237U 25052AD  25095.43494161  .00025645  00000-0  12936-2 0  9993
2 63237  97.4441 350.3779 0006531 232.7454 127.3184 15.17094375  3357
TEVEL2-9
1 63238U 25052AE  25095.43527848  .00025257  00000-0  12752-2 0  9998
2 63238  97.4444 350.3778 0006646 232.8268 127.2359 15.17063497  3355
TEVEL2-7
1 63239U 25052AF  25095.43570449  .00025257  00000-0  12766-2 0  9999
2 63239  97.4442 350.3771 0006619 233.1572 126.9054 15.17026336  3358
